Overview Statistics Trail Chart Weather Telemetry Raw packets
 

This is the latest recevied weather packets stored in our database for station/object ENMS. If no packets are shown the sender has not sent any weather packets the latest 10 day(s).

<< 1 2 3 4 5 6 >>
Time Temp. Humidity Pressure Rain* Wind** Luminosity Snow
1788550388 11.67° C 87% 998 hPa - - - -
1788548588 12.78° C 76% 998 hPa - - - -
1788546788 13.89° C 71% 997 hPa - - - -
1788544988 15° C 62% 997 hPa - - - -
1788543188 15.56° C 63% 997 hPa - - - -
1788541388 15° C 72% 997 hPa - - - -
1788539588 15.56° C 67% 997 hPa - - - -
1788537788 16.67° C 59% 997 hPa - - - -
1788535988 17.78° C 51% 997 hPa - - - -
1788534188 16.67° C 59% 998 hPa - - - -
1788532388 16.67° C 59% 998 hPa - - - -
1788530588 16.67° C 59% 998 hPa - - - -
1788528789 15.56° C 67% 998 hPa - - - -
1788526988 16.67° C 59% 998 hPa - - - -
1788525188 16.67° C 63% 998 hPa - - - -
1788523387 15.56° C 67% 998 hPa - - - -
1788521588 15° C 72% 998 hPa - - - -
1788519787 15° C 72% 999 hPa - - - -
1788517988 15° C 72% 999 hPa - - - -
1788516188 13.89° C 76% 999 hPa - - - -
1788514387 13.89° C 76% 1000 hPa - - - -
1788512587 11.67° C 87% 1000 hPa - - - -
1788510787 10.56° C 93% 1000 hPa - - - -
1788508988 10.56° C 93% 1000 hPa - - - -
1788507187 10.56° C 93% 1000 hPa - - - -

* Rain since midnight (hover to see other rain measurements)
** Current wind speed in m/s (hover to see current wind gust speed)